When you browse on this site, cookies collect data to enhance your experience and personalize the content and advertising you see.
Visit our Privacy Policy to learn more. By continuing to use the site, you agree to this use of cookies and data.
  • In Germany
  • List of Countries
  • For 7 days
  • Water Temperature
  • Weather Map
  • Weather Widgets
  • user-avatar
    Login

    Hourly Weather Abovyan

    Today, 15 September, Sunday

    Time Temperature Precipitation Wind Pressure Humidity
    00:00 +17°C° 0 mm 2 mps 674 mmHg 58%
    01:00 +16°C° 0 mm 1 mps 674 mmHg 59%
    02:00 +16°C° 0 mm 1 mps 673 mmHg 60%
    03:00 +16°C° 0 mm 1 mps 673 mmHg 61%
    04:00 +15°C° 0 mm 1 mps 673 mmHg 61%
    05:00 +15°C° 0 mm 1 mps 673 mmHg 61%
    06:00 +15°C° 0 mm 1 mps 674 mmHg 61%
    07:00 +18°C° 0 mm 1 mps 674 mmHg 54%
    08:00 +21°C° 0 mm 1 mps 674 mmHg 47%
    09:00 +23°C° 0 mm 1 mps 674 mmHg 41%
    10:00 +24°C° 0 mm 2 mps 674 mmHg 38%
    11:00 +25°C° 0 mm 2 mps 674 mmHg 36%
    12:00 +26°C° 0 mm 2 mps 674 mmHg 33%
    13:00 +27°C° 0 mm 2 mps 674 mmHg 32%
    14:00 +27°C° 0 mm 2 mps 674 mmHg 30%
    15:00 +28°C° 0 mm 2 mps 674 mmHg 29%
    16:00 +26°C° 0.1 mm 2 mps 674 mmHg 37%
    17:00 +24°C° 0.1 mm 2 mps 674 mmHg 46%
    18:00 +22°C° 0.1 mm 1 mps 674 mmHg 54%
    19:00 +20°C° 0.1 mm 2 mps 674 mmHg 58%
    20:00 +20°C° 0.1 mm 2 mps 675 mmHg 61%
    21:00 +19°C° 0.1 mm 2 mps 675 mmHg 64%
    22:00 +19°C° 0.2 mm 2 mps 675 mmHg 66%
    23:00 +20°C° 0.2 mm 1 mps 675 mmHg 68%

    Tomorrow, 16 September, Monday

    Time Temperature Precipitation Wind Pressure Humidity
    00:00 +19°C° 0.2 mm 1 mps 674 mmHg 69%
    01:00 +19°C° 0.3 mm 1 mps 674 mmHg 71%
    02:00 +18°C° 0.3 mm 1 mps 674 mmHg 73%
    03:00 +18°C° 0.3 mm 1 mps 674 mmHg 75%
    04:00 +18°C° 0.2 mm 1 mps 673 mmHg 75%
    05:00 +15°C° 0.2 mm 0 mps 673 mmHg 76%
    06:00 +15°C° 0.2 mm 0 mps 673 mmHg 77%
    07:00 +19°C° 0 mm 1 mps 673 mmHg 70%
    08:00 +21°C° 0 mm 1 mps 673 mmHg 63%
    09:00 +23°C° 0 mm 1 mps 674 mmHg 55%
    10:00 +24°C° 0 mm 2 mps 673 mmHg 51%
    11:00 +26°C° 0 mm 2 mps 673 mmHg 47%
    12:00 +27°C° 0 mm 3 mps 673 mmHg 43%
    13:00 +27°C° 0 mm 3 mps 673 mmHg 41%
    14:00 +28°C° 0 mm 3 mps 673 mmHg 39%
    15:00 +28°C° 0 mm 3 mps 673 mmHg 37%
    16:00 +27°C° 0 mm 2 mps 672 mmHg 41%
    17:00 +26°C° 0 mm 1 mps 672 mmHg 45%
    18:00 +24°C° 0 mm 1 mps 672 mmHg 49%
    19:00 +24°C° 0 mm 1 mps 672 mmHg 51%
    20:00 +23°C° 0 mm 2 mps 672 mmHg 52%
    21:00 +21°C° 0 mm 2 mps 672 mmHg 54%
    22:00 +20°C° 0 mm 2 mps 672 mmHg 56%
    23:00 +20°C° 0 mm 2 mps 672 mmHg 57%

    Day after tomorrow, 17 September, Tuesday

    Time Temperature Precipitation Wind Pressure Humidity
    00:00 +20°C° 0 mm 1 mps 672 mmHg 59%
    01:00 +20°C° 0 mm 1 mps 671 mmHg 59%
    02:00 +20°C° 0 mm 1 mps 671 mmHg 60%
    03:00 +19°C° 0 mm 1 mps 671 mmHg 60%
    04:00 +19°C° 0 mm 1 mps 670 mmHg 61%
    05:00 +19°C° 0 mm 1 mps 670 mmHg 62%
    06:00 +18°C° 0 mm 1 mps 670 mmHg 63%
    07:00 +21°C° 0 mm 1 mps 670 mmHg 56%
    08:00 +23°C° 0 mm 1 mps 671 mmHg 48%
    09:00 +25°C° 0 mm 2 mps 671 mmHg 41%
    10:00 +27°C° 0 mm 2 mps 671 mmHg 37%
    11:00 +28°C° 0 mm 2 mps 671 mmHg 34%
    12:00 +29°C° 0 mm 3 mps 671 mmHg 31%
    13:00 +29°C° 0 mm 3 mps 671 mmHg 28%
    14:00 +30°C° 0 mm 3 mps 671 mmHg 26%
    15:00 +30°C° 0 mm 4 mps 670 mmHg 24%
    16:00 +29°C° 0 mm 3 mps 670 mmHg 27%
    17:00 +27°C° 0 mm 3 mps 670 mmHg 29%
    18:00 +26°C° 0 mm 2 mps 670 mmHg 32%
    19:00 +25°C° 0 mm 3 mps 670 mmHg 37%
    20:00 +23°C° 0 mm 4 mps 671 mmHg 41%
    21:00 +21°C° 0 mm 5 mps 671 mmHg 46%
    22:00 +20°C° 0.1 mm 4 mps 671 mmHg 48%
    23:00 +19°C° 0.1 mm 3 mps 671 mmHg 50%

    18 September, Wednesday

    Time Temperature Precipitation Wind Pressure Humidity
    00:00 +19°C° 0.1 mm 1 mps 671 mmHg 53%
    01:00 +19°C° 0 mm 1 mps 671 mmHg 52%
    02:00 +19°C° 0 mm 1 mps 671 mmHg 52%
    03:00 +17°C° 0 mm 2 mps 671 mmHg 51%
    04:00 +17°C° 0 mm 2 mps 672 mmHg 52%
    05:00 +17°C° 0 mm 2 mps 672 mmHg 52%
    06:00 +16°C° 0 mm 2 mps 672 mmHg 53%
    07:00 +19°C° 0 mm 2 mps 673 mmHg 47%
    08:00 +21°C° 0 mm 2 mps 674 mmHg 42%
    09:00 +24°C° 0 mm 2 mps 674 mmHg 36%
    10:00 +25°C° 0 mm 2 mps 674 mmHg 33%
    11:00 +26°C° 0 mm 2 mps 674 mmHg 30%
    12:00 +28°C° 0 mm 2 mps 675 mmHg 28%
    13:00 +28°C° 0 mm 1 mps 674 mmHg 26%
    14:00 +29°C° 0 mm 1 mps 674 mmHg 25%
    15:00 +29°C° 0 mm 1 mps 674 mmHg 23%
    16:00 +28°C° 0 mm 1 mps 674 mmHg 27%
    17:00 +26°C° 0 mm 1 mps 673 mmHg 30%
    18:00 +24°C° 0 mm 1 mps 673 mmHg 34%
    19:00 +23°C° 0 mm 1 mps 673 mmHg 34%
    20:00 +23°C° 0 mm 1 mps 673 mmHg 34%
    21:00 +22°C° 0 mm 1 mps 674 mmHg 33%
    22:00 +21°C° 0 mm 1 mps 674 mmHg 34%
    23:00 +21°C° 0 mm 1 mps 674 mmHg 36%

    19 September, Thursday

    Time Temperature Precipitation Wind Pressure Humidity
    00:00 +21°C° 0 mm 1 mps 673 mmHg 37%
    01:00 +20°C° 0 mm 1 mps 673 mmHg 38%
    02:00 +20°C° 0 mm 1 mps 673 mmHg 39%
    03:00 +19°C° 0 mm 1 mps 673 mmHg 41%
    04:00 +19°C° 0 mm 1 mps 673 mmHg 42%
    05:00 +18°C° 0 mm 1 mps 673 mmHg 43%
    06:00 +18°C° 0 mm 1 mps 672 mmHg 44%
    07:00 +21°C° 0 mm 1 mps 673 mmHg 39%
    08:00 +23°C° 0 mm 1 mps 673 mmHg 33%
    09:00 +26°C° 0 mm 1 mps 674 mmHg 28%
    10:00 +27°C° 0 mm 1 mps 674 mmHg 26%
    11:00 +28°C° 0 mm 2 mps 674 mmHg 24%
    12:00 +29°C° 0 mm 2 mps 674 mmHg 22%
    13:00 +30°C° 0 mm 2 mps 674 mmHg 21%
    14:00 +31°C° 0 mm 2 mps 673 mmHg 19%
    15:00 +31°C° 0 mm 2 mps 673 mmHg 18%
    16:00 +29°C° 0 mm 1 mps 672 mmHg 21%
    17:00 +27°C° 0 mm 1 mps 672 mmHg 24%
    18:00 +25°C° 0 mm 1 mps 672 mmHg 28%
    19:00 +24°C° 0 mm 1 mps 672 mmHg 28%
    20:00 +24°C° 0 mm 2 mps 672 mmHg 28%
    21:00 +23°C° 0 mm 2 mps 672 mmHg 28%
    22:00 +23°C° 0 mm 2 mps 672 mmHg 29%
    23:00 +21°C° 0 mm 2 mps 672 mmHg 31%

    20 September, Friday

    Time Temperature Precipitation Wind Pressure Humidity
    00:00 +20°C° 0 mm 2 mps 672 mmHg 32%
    01:00 +20°C° 0 mm 2 mps 671 mmHg 34%
    02:00 +19°C° 0 mm 2 mps 671 mmHg 37%
    03:00 +19°C° 0 mm 2 mps 671 mmHg 39%
    04:00 +18°C° 0 mm 2 mps 671 mmHg 41%
    05:00 +19°C° 0 mm 1 mps 670 mmHg 43%
    06:00 +18°C° 0 mm 1 mps 670 mmHg 45%
    07:00 +21°C° 0 mm 1 mps 671 mmHg 39%
    08:00 +24°C° 0 mm 2 mps 671 mmHg 33%
    09:00 +26°C° 0 mm 2 mps 671 mmHg 28%
    10:00 +28°C° 0 mm 2 mps 671 mmHg 25%
    11:00 +29°C° 0 mm 2 mps 671 mmHg 23%
    12:00 +30°C° 0 mm 3 mps 671 mmHg 20%
    13:00 +31°C° 0 mm 3 mps 670 mmHg 19%
    14:00 +31°C° 0 mm 3 mps 670 mmHg 17%
    15:00 +33°C° 0 mm 3 mps 669 mmHg 16%
    16:00 +30°C° 0 mm 2 mps 669 mmHg 18%
    17:00 +28°C° 0 mm 2 mps 668 mmHg 21%
    18:00 +26°C° 0 mm 2 mps 668 mmHg 23%
    19:00 +25°C° 0 mm 2 mps 668 mmHg 24%
    20:00 +25°C° 0 mm 2 mps 668 mmHg 24%
    21:00 +24°C° 0 mm 2 mps 668 mmHg 25%
    22:00 +23°C° 0 mm 2 mps 668 mmHg 26%
    23:00 +23°C° 0 mm 2 mps 668 mmHg 27%
    Show more